Zurück zum Katalog

USA 469

AktivMilitärVLEO
NORAD 62538·PAYLOAD·🇺🇸 United States

Gestartet Jan 10, 2025 von Vandenberg Space Force Base

Loading…

Nächste Überflüge (nächste 24 Stunden)

TLE

VeraltetSource: Mike McCants

Epoche: Aug 23, 2026, 20:26 UTC

1 62538U 25005G   26235.85161625 0.00000000  00000-0  00000-0 0    01
2 62538  70.0182 246.9597 0002000 274.8193  85.1806 14.96713588    02

Verfolge USA 469 in Echtzeit mit AllMySat

Download on the App Store